Location: Bern�tre
(50.1974°N, 2.0915°E)
Time: 06:26:12
(UTC+00:00)

Cosmos 2298 Rocket - Pass Details

Date: 18 September 2020
Orbit: 776 x 783 km, 74.0° (Epoch: 22 October)

Event Time Altitude Azimuth Distance (km) Brightness Sun altitude
Rises 19:57:40 0° 200° (SSW) 3,259 7.2 -19.2°
Reaches altitude 10° 20:00:03 10° 200° (SSW) 2,335 6.4 -19.6°
Maximum altitude 20:05:22 86° 113° (ESE) 792 3.9 -20.3°
Drops below altitude 10° 20:10:43 10° 25° (NNE) 2,350 6.6 -21.1°
Sets 20:13:07 0° 25° (NNE) 3,282 7.3 -21.4°
